{"data":{"norad_id":43074,"epoch":"2026-09-19T18:20:11.144832Z","epoch_age_seconds":79000,"freshness":"FRESH","line1":"1 43074U 17083E   26262.76401788 -.00000050  00000+0 -24785-4 0  9992","line2":"2 43074  86.3912 282.5186 0002087  90.5464 269.5971 14.34217609457693","mean_motion":14.34217609,"eccentricity":0.0002087,"inclination_deg":86.3912,"raan_deg":282.5186,"arg_perigee_deg":90.5464,"mean_anomaly_deg":269.5971,"bstar":-2.4785e-5,"rev_number":45769,"period_min":100.40317389521,"perigee_km":776.17420692686,"apogee_km":779.16103977665,"semimajor_km":7155.8046233518,"source":"CELESTRAK","updated_at":"2026-09-20T09:00:36.327176Z"}}